Snowfall_Accumulation
0.0 0.0 0.0 0.0 0.0 0.0 0.0 0.0 0.0 0.0 0.0 0.0 0.0 0.0 0.0 0.0 0.0 0.0 0.0 0.0 0.0 0.0 0.0 0.0 0.0 0.0 0.0 0.0 0.0 0.0 0.0 0.0 0.0 0.0 0.0 0.0 0.0 0.0 0.0 0.0 0.0 0.0 0.0 0.0 0.0 0.0 0.0 0.0 0.0
0.0 0.0 0.0 0.0 0.0 0.3 0.0 0.0 0.0 0.0 0.0 0.0 0.0 0.0 0.0 0.0 0.0 0.0 0.0 0.0 0.0 0.0 0.0 0.0 0.0 0.0 0.0 0.0 0.0 0.0 0.0 0.0 0.0 0.0 0.0 0.0 0.0 0.0 0.0 0.0 0.0 0.0 0.0 0.0 0.0 0.0 0.0 0.0 0.0
0.0 0.0 0.0 0.0 0.0 0.0 0.0 0.0 0.0 0.0 0.0 0.0 0.0 0.0 0.0 0.0 0.0 0.0 0.0 0.0 0.0 0.0 0.0 0.0 0.0 0.0 0.0 0.0 0.0 0.0 0.0 0.0 0.0 0.0 0.0 0.0 0.0 0.0 0.0 0.0 0.0 0.0 0.0 0.0 0.0 0.0 0.0 0.0 0.0
0.0 0.0 0.0 0.0 0.4 0.0 0.0 0.0 0.0 0.0 0.0 0.0 0.0 0.0 0.0 0.0 0.0 0.0 0.0 0.0 0.0 0.0 0.0 0.0 0.0 0.0 0.0 0.0 0.0 0.0 0.0 0.0 0.0 0.0 0.0 0.0 0.0 0.0 0.0 0.0 0.0 0.0 0.0 0.0 0.0 0.0 0.0 0.0 0.0
0.0 0.0 0.1 0.1 0.0 0.0 0.0 0.0 0.0 0.0 0.0 0.0 0.0 0.0 0.0 0.0 0.0 0.0 0.0 0.0 0.0 0.0 0.0 0.0 0.0 0.0 0.0 0.0 0.0 0.0 0.0 0.0 0.0 0.0 0.0 0.0 0.0 0.0 0.0 0.0 0.0 0.0 0.0 0.0 0.0 0.0 0.0 0.0 0.0
0.0 0.0 0.5 0.6 0.1 0.0 0.0 0.0 0.0 0.0 0.0 0.0 0.0 0.0 0.0 0.0 0.0 0.0 0.0 0.0 0.0 0.0 0.0 0.0 0.0 0.0 0.0 0.0 0.0 0.0 0.0 0.0 0.0 0.0 0.0 0.0 0.0 0.0 0.0 0.0 0.0 0.0 0.0 0.0 0.0 0.0 0.0 0.0 0.0
0.0 0.0 0.6 0.3 0.1 0.0 0.0 0.0 0.0 0.0 0.0 0.0 0.0 0.0 0.0 0.0 0.0 0.0 0.0 0.0 0.0 0.0 0.0 0.0 0.0 0.0 0.0 0.0 0.0 0.0 0.0 0.0 0.0 0.0 0.0 0.0 0.0 0.0 0.0 0.0 0.0 0.0 0.0 0.0 0.0 0.0 0.0 0.0 0.0
0.0 0.0 0.6 0.5 0.3 0.1 0.1 0.0 0.0 0.0 0.0 0.1 0.0 0.0 0.0 0.0 0.0 0.0 0.0 0.0 0.0 0.0 0.0 0.0 0.0 0.0 0.0 0.0 0.0 0.0 0.0 0.0 0.0 0.0 0.0 0.0 0.0 0.0 0.0 0.0 0.0 0.0 0.0 0.0 0.0 0.0 0.0 0.0 0.0
0.0 0.4 1.4 0.6 0.3 0.1 0.2 0.3 0.1 0.0 0.0 0.1 0.0 0.0 0.0 0.0 0.0 0.0 0.0 0.0 0.0 0.0 0.0 0.0 0.0 0.0 0.0 0.0 0.0 0.0 0.0 0.0 0.0 0.0 0.0 0.0 0.0 0.0 0.0 0.0 0.0 0.0 0.0 0.0 0.0 0.0 0.0 0.0 0.0
0.1 1.9 1.0 0.3 0.3 0.1 0.1 0.0 0.1 0.1 0.1 0.0 0.0 0.0 0.0 0.0 0.0 0.0 0.0 0.0 0.0 0.0 0.0 0.0 0.0 0.0 0.0 0.0 0.0 0.0 0.0 0.0 0.0 0.0 0.0 0.0 0.0 0.0 0.0 0.0 0.0 0.0 0.0 0.0 0.0 0.0 0.0 0.0 0.0
0.4 0.8 0.3 0.3 0.2 0.2 0.1 0.2 0.1 0.1 0.2 0.1 0.1 0.0 0.0 0.0 0.0 0.0 0.0 0.0 0.0 0.0 0.0 0.0 0.0 0.0 0.0 0.0 0.0 0.0 0.0 0.0 0.0 0.0 0.0 0.0 0.0 0.0 0.0 0.0 0.0 0.0 0.0 0.0 0.0 0.0 0.0 0.0 0.0
0.4 0.2 0.1 0.3 0.3 0.2 0.2 0.1 0.2 0.1 0.1 0.0 0.0 0.0 0.0 0.0 0.0 0.0 0.0 0.0 0.0 0.0 0.0 0.0 0.0 0.0 0.0 0.0 0.0 0.0 0.0 0.0 0.0 0.0 0.0 0.0 0.0 0.0 0.0 0.0 0.0 0.0 0.0 0.0 0.0 0.0 0.0 0.0 0.0
0.5 0.4 0.2 0.3 0.2 0.2 0.2 0.3 0.2 0.1 0.0 0.0 0.0 0.0 0.0 0.0 0.0 0.0 0.0 0.0 0.0 0.0 0.0 0.0 0.0 0.0 0.0 0.0 0.0 0.0 0.0 0.0 0.0 0.0 0.0 0.0 0.0 0.0 0.0 0.0 0.0 0.0 0.0 0.0 0.0 0.0 0.0 0.0 0.0
0.6 0.5 0.2 0.1 0.1 0.2 0.4 0.5 0.4 0.2 0.0 0.0 0.0 0.0 0.0 0.0 0.0 0.0 0.0 0.0 0.0 0.0 0.0 0.0 0.0 0.0 0.0 0.0 0.0 0.0 0.0 0.0 0.0 0.0 0.0 0.0 0.0 0.0 0.0 0.0 0.0 0.0 0.0 0.0 0.0 0.0 0.0 0.0 0.0
0.2 0.5 0.3 0.1 0.0 0.0 0.2 0.8 0.6 0.4 0.1 0.0 0.0 0.0 0.0 0.0 0.0 0.0 0.0 0.0 0.0 0.0 0.0 0.0 0.0 0.0 0.0 0.0 0.0 0.0 0.0 0.0 0.0 0.0 0.0 0.0 0.0 0.0 0.0 0.0 0.0 0.0 0.0 0.0 0.0 0.0 0.0 0.0 0.0
0.4 1.6 2.3 0.5 0.2 0.1 1.0 2.2 0.5 0.4 0.2 0.1 0.0 0.0 0.0 0.0 0.0 0.0 0.0 0.0 0.0 0.0 0.0 0.0 0.0 0.0 0.0 0.0 0.0 0.0 0.0 0.0 0.0 0.0 0.0 0.0 0.0 0.0 0.0 0.0 0.0 0.0 0.0 0.0 0.0 0.0 0.0 0.0 0.0
4.7 6.4 4.2 1.4 0.3 0.4 1.3 1.4 0.4 0.4 0.3 0.3 0.2 0.1 0.1 0.1 0.0 0.0 0.0 0.0 0.0 0.0 0.0 0.0 0.0 0.0 0.0 0.0 0.0 0.0 0.0 0.0 0.0 0.0 0.0 0.0 0.0 0.0 0.0 0.0 0.0 0.0 0.0 0.0 0.0 0.0 0.0 0.0 0.0
7.1 5.1 3.4 2.4 1.5 1.0 1.6 1.3 0.6 0.4 0.3 0.4 0.3 0.2 0.1 0.1 0.1 0.1 0.0 0.0 0.0 0.0 0.0 0.0 0.0 0.0 0.0 0.0 0.0 0.0 0.0 0.0 0.0 0.0 0.0 0.0 0.0 0.0 0.0 0.0 0.0 0.0 0.0 0.0 0.0 0.0 0.0 0.0 0.0
3.5 4.6 4.2 1.9 1.1 1.7 1.8 1.6 1.0 0.5 0.5 0.6 0.4 0.4 0.3 0.2 0.1 0.1 0.1 0.0 0.0 0.0 0.0 0.0 0.0 0.0 0.0 0.0 0.0 0.0 0.0 0.0 0.0 0.0 0.0 0.0 0.0 0.0 0.0 0.0 0.0 0.0 0.0 0.0 0.0 0.0 0.0 0.0 0.0
4.5 6.1 4.5 2.1 1.0 2.3 2.4 2.2 1.3 0.9 1.0 0.8 0.6 0.6 0.5 0.5 0.3 0.1 0.1 0.1 0.1 0.0 0.0 0.0 0.0 0.0 0.0 0.0 0.0 0.0 0.0 0.0 0.0 0.0 0.0 0.0 0.0 0.0 0.0 0.0 0.0 0.0 0.0 0.0 0.0 0.0 0.1 0.1 0.1
4.8 5.1 4.2 3.7 2.3 2.0 3.8 4.0 1.9 1.4 1.0 0.8 0.8 0.7 0.8 0.8 0.8 0.7 0.4 0.4 0.5 0.2 0.1 0.1 0.0 0.1 0.0 0.0 0.0 0.0 0.1 0.0 0.0 0.0 0.0 0.0 0.0 0.1 0.1 0.1 0.1 0.1 0.0 0.0 0.0 0.1 0.3 0.4 0.2
6.7 2.1 2.5 3.3 6.3 7.6 6.2 10.1 2.9 1.8 1.4 1.5 1.3 1.1 1.0 0.9 0.8 0.9 0.6 0.4 0.5 0.4 0.3 0.0 0.1 0.1 0.1 0.0 0.0 0.1 0.2 0.1 0.2 0.2 0.0 0.0 0.0 0.1 0.1 0.2 0.1 0.1 0.1 0.1 0.1 0.1 0.2 0.7 0.8
4.3 1.5 2.3 4.0 7.2 9.8 6.1 9.8 4.1 1.6 2.3 2.0 1.7 1.3 1.3 1.2 1.0 0.9 0.7 0.5 0.4 0.4 0.4 0.2 0.1 0.1 0.1 0.1 0.3 0.4 0.6 0.2 0.2 0.3 0.0 0.3 0.0 0.1 0.3 0.3 0.2 0.1 0.1 0.1 0.2 0.2 0.3 0.6 1.2
2.0 2.3 3.4 5.2 10.5 20.4 6.7 7.9 5.7 4.1 5.1 3.5 2.4 1.7 2.1 1.2 1.1 0.8 0.7 0.6 0.5 0.6 0.4 0.2 0.4 0.1 0.1 0.1 0.1 0.2 0.2 0.1 0.1 0.1 0.2 0.3 0.1 0.2 0.3 0.4 0.2 0.1 0.1 0.1 0.2 0.3 0.4 0.6 0.9
4.5 13.5 27.0 28.9 28.9 16.4 3.0 5.9 6.3 4.5 4.5 4.8 3.7 3.2 2.4 1.3 1.4 1.2 0.9 0.8 0.7 0.8 0.7 0.7 0.5 0.2 0.1 0.2 0.2 0.2 0.1 0.1 0.1 0.1 0.2 0.3 0.4 0.3 0.3 0.5 0.4 0.4 0.1 0.1 0.2 0.4 0.5 0.6 0.9
5.3 10.5 21.7 21.8 14.7 6.5 3.5 6.1 5.9 3.8 3.3 3.0 3.0 2.6 2.1 1.4 1.5 1.6 1.6 1.3 0.9 0.8 0.7 0.8 0.4 0.3 0.2 0.2 0.4 0.1 0.1 0.1 0.1 0.1 0.3 0.2 0.4 0.4 0.3 0.4 0.4 0.5 0.2 0.3 0.4 0.5 0.7 0.8 1.0
7.6 9.9 7.6 14.7 11.3 7.6 5.8 5.1 3.9 1.8 1.7 2.0 2.4 2.2 2.0 1.8 1.9 1.6 1.5 1.5 1.3 0.8 0.9 1.1 0.8 0.5 0.3 0.3 0.3 0.1 0.1 0.1 0.1 0.2 0.2 0.2 0.2 0.2 0.3 0.4 0.5 0.6 0.3 0.6 0.8 0.7 0.9 1.0 1.3
3.7 6.4 11.0 20.2 17.9 10.2 6.0 5.5 6.2 3.9 3.7 3.1 3.1 3.5 3.1 2.7 2.0 1.6 1.3 1.4 1.1 0.9 0.9 1.0 1.0 0.9 0.6 0.3 0.6 0.5 0.1 0.1 0.1 0.1 0.2 0.2 0.1 0.2 0.2 0.4 0.6 0.8 0.9 0.9 1.0 1.6 1.6 1.6 1.7
7.1 9.6 13.5 16.8 14.0 12.2 8.1 7.4 7.2 6.0 5.4 4.7 4.2 4.2 3.9 2.8 2.7 1.9 1.4 1.4 1.1 1.0 1.0 0.9 0.9 0.9 0.8 0.7 0.8 0.8 0.3 0.1 0.1 0.1 0.1 0.2 0.2 0.2 0.3 0.5 0.6 0.9 1.0 1.2 1.5 1.8 2.3 2.5 2.1
5.8 9.5 12.7 19.1 14.1 9.1 8.8 7.8 5.0 4.5 4.7 4.4 4.1 3.8 3.8 2.9 2.3 1.6 1.5 1.3 1.1 1.2 1.0 1.0 0.8 0.9 0.9 0.8 1.0 0.9 0.9 0.7 0.2 0.2 0.1 0.2 0.2 0.2 0.2 0.4 0.8 1.1 1.4 1.4 2.0 2.0 2.3 2.9 2.7